CW9120 Weather Reports


time (UTC)temp
C
wind
direction
speed
KPH
gust
KPH
rain 1hr
cm
rain 24hr
cm
rain mn
cm
humidity
%
barometer
mb
20260906221550 17 145 0.0 11.3 0.00 0.00 0.00 65 1014.1
20260906220030 18 148 1.6 9.7 0.00 0.00 0.00 63 1014.2
20260906214529 17 167 1.6 16.1 0.00 0.00 0.00 65 1014.2
20260906213026 17 101 4.8 12.9 0.00 0.00 0.00 64 1014.2
20260906211524 17 66 1.6 14.5 0.00 0.00 0.00 65 1014.4
20260906210020 17 142 3.2 14.5 0.00 0.00 0.00 65 1014.6
20260906204520 17 149 3.2 16.1 0.00 0.00 0.00 64 1014.7
20260906203027 17 146 0.0 12.9 0.00 0.00 0.00 65 1014.7
20260906201515 17 117 1.6 16.1 0.00 0.00 0.00 65 1014.8
20260906200011 17 100 3.2 14.5 0.00 0.00 0.00 64 1014.9
20260906194509 17 103 4.8 16.1 0.00 0.00 0.00 64 1015.0
20260906193005 16 165 4.8 16.1 0.00 0.00 0.00 64 1015.1
20260906191503 16 85 3.2 12.9 0.00 0.00 0.00 65 1015.3
20260906190059 16 105 1.6 16.1 0.00 0.00 0.00 64 1015.3
20260906184555 15 86 1.6 16.1 0.00 0.00 0.00 63 1015.3
20260906183112 15 132 3.2 11.3 0.00 0.00 0.00 62 1015.3
20260906181554 15 88 3.2 12.9 0.00 0.00 0.00 61 1015.5
20260906174544 15 94 3.2 12.9 0.00 0.00 0.00 58 1015.7
20260906173041 15 132 3.2 11.3 0.00 0.00 0.00 57 1015.7
20260906171541 15 126 0.0 8.0 0.00 0.00 0.00 57 1015.8
20260906170010 15 141 3.2 11.3 0.00 0.00 0.00 57 1015.8
20260906164508 15 76 0.0 8.0 0.00 0.00 0.00 57 1015.9
20260906163037 15 159 3.2 11.3 0.00 0.00 0.00 57 1015.8
20260906161535 15 109 1.6 12.9 0.00 0.00 0.00 55 1015.8
20260906160028 15 159 1.6 8.0 0.00 0.00 0.00 53 1015.8
20260906154524 15 179 0.0 8.0 0.00 0.00 0.00 52 1015.8
20260906153021 15 140 0.0 8.0 0.00 0.00 0.00 51 1015.8
20260906151528 15 129 0.0 4.8 0.00 0.00 0.00 50 1015.8
20260906150017 15 110 0.0 6.4 0.00 0.00 0.00 50 1015.9
20260906144517 15 133 1.6 6.4 0.00 0.00 0.00 51 1016.0
20260906143015 15 104 1.6 6.4 0.00 0.00 0.00 49 1015.8
20260906141521 15 109 0.0 4.8 0.00 0.00 0.00 48 1015.9
20260906140032 15 126 0.0 6.4 0.00 0.00 0.00 48 1015.8
20260906134548 15 99 4.8 11.3 0.00 0.00 0.00 49 1015.7
20260906133041 15 103 1.6 4.8 0.00 0.00 0.00 47 1015.8
20260906131539 15 144 0.0 8.0 0.00 0.00 0.00 47 1015.8
20260906130039 15 169 3.2 11.3 0.00 0.00 0.00 48 1015.8
20260906124539 15 171 1.6 9.7 0.00 0.00 0.00 48 1015.7
20260906123041 15 115 0.0 14.5 0.00 0.00 0.00 49 1015.7
20260906121541 15 80 3.2 9.7 0.00 0.00 0.00 47 1015.7
20260906120032 15 153 0.0 8.0 0.00 0.00 0.00 45 1015.7
20260906114540 15 152 1.6 11.3 0.00 0.00 0.00 43 1015.6
20260906113044 15 110 0.0 6.4 0.00 0.00 0.00 42 1015.5
20260906111600 15 157 0.0 9.7 0.00 0.00 0.00 42 1015.5
20260906110100 15 133 0.0 4.8 0.00 0.00 0.00 42 1015.5
20260906104558 15 123 0.0 4.8 0.00 0.00 0.00 42 1015.4
20260906103057 15 155 1.6 11.3 0.00 0.00 0.00 42 1015.4
20260906101556 15 98 0.0 3.2 0.00 0.00 0.00 44 1015.3
20260906100055 15 96 1.6 8.0 0.00 0.00 0.00 43 1015.3
20260906094525 15 154 1.6 6.4 0.00 0.00 0.00 43 1015.4
20260906093025 15 136 0.0 6.4 0.00 0.00 0.00 44 1015.4
20260906091531 15 113 1.6 9.7 0.00 0.00 0.00 44 1015.5
20260906090025 15 107 0.0 0.0 0.00 0.00 0.00 45 1015.5
20260906084521 15 109 0.0 8.0 0.00 0.00 0.00 45 1015.3
20260906083021 15 65 0.0 6.4 0.00 0.00 0.00 47 1015.1
20260906081527 15 148 0.0 16.1 0.00 0.00 0.00 49 1015.0
20260906080016 15 133 0.0 12.9 0.00 0.00 0.00 50 1015.0
20260906074520 15 155 1.6 11.3 0.00 0.00 0.00 53 1015.0
20260906073015 15 96 3.2 9.7 0.00 0.00 0.00 54 1014.9
20260906071512 15 136 4.8 14.5 0.00 0.00 0.00 54 1015.0
20260906070011 15 65 1.6 9.7 0.00 0.00 0.00 55 1014.8
20260906064510 15 149 1.6 14.5 0.00 0.00 0.00 57 1014.8
20260906063010 15 164 3.2 12.9 0.00 0.00 0.00 59 1014.7
20260906061507 15 85 0.0 16.1 0.00 0.00 0.00 61 1014.7
20260906060015 15 155 0.0 11.3 0.00 0.00 0.00 61 1014.5
20260906054505 15 116 1.6 9.7 0.00 0.00 0.00 61 1014.4
20260906053013 16 146 0.0 6.4 0.00 0.00 0.00 63 1014.2
20260906051504 16 184 0.0 9.7 0.00 0.00 0.00 64 1014.0
20260906050008 16 145 0.0 11.3 0.00 0.00 0.00 65 1014.0
20260906044502 16 157 3.2 11.3 0.00 0.00 0.00 66 1013.9
20260906043002 16 121 0.0 6.4 0.00 0.00 0.00 67 1013.9
20260906041559 17 242 1.6 8.0 0.00 0.00 0.00 67 1013.7
20260906040058 17 164 0.0 6.4 0.00 0.00 0.00 68 1013.5
20260906034557 18 165 0.0 0.0 0.00 0.00 0.00 68 1013.2
20260906033157 18 165 0.0 9.7 0.00 0.00 0.00 67 1013.0
20260906031601 19 149 0.0 12.9 0.00 0.00 0.00 66 1012.9
20260906030053 19 136 1.6 9.7 0.00 0.00 0.00 65 1012.9
20260906024552 20 193 0.0 8.0 0.00 0.00 0.00 65 1012.7
20260906023052 20 184 3.2 12.9 0.00 0.00 0.00 64 1012.6
20260906021521 20 218 1.6 17.7 0.00 0.00 0.00 63 1012.5
20260906020021 21 155 0.0 8.0 0.00 0.00 0.00 61 1012.4
20260906014518 22 246 1.6 12.9 0.00 0.00 0.00 57 1012.3
20260906013016 22 209 1.6 11.3 0.00 0.00 0.00 53 1012.4
20260906011518 24 171 0.0 0.0 0.00 0.00 0.00 51 1012.3
20260906010015 25 175 0.0 3.2 0.00 0.00 0.00 50 1012.2
20260906004513 25 175 0.0 3.2 0.00 0.00 0.00 50 1012.1
20260906003012 25 175 0.0 1.6 0.00 0.00 0.00 51 1012.2
20260906001509 25 178 0.0 6.4 0.00 0.00 0.00 51 1012.3
20260906000009 26 127 0.0 3.2 0.00 0.00 0.00 50 1012.3
20260905234508 26 128 0.0 0.0 0.00 0.00 0.00 50 1012.5
20260905233105 26 167 0.0 4.8 0.00 0.00 0.00 49 1012.7
20260905231502 27 195 0.0 8.0 0.00 0.00 0.00 48 1012.8
20260905224701 26 177 0.0 3.2 0.00 0.00 0.00 47 1013.2
20260905223058 27 298 0.0 1.6 0.00 0.00 0.00 47 1013.3